User: anonymous   Login
Location: Unspecified
(0.0000°N, 0.0000°E)
Time: 03:26:01
(UTC+00:00)
Language:

HO-68 - Orbit

View from above orbital plane
View from above orbital plane
View from above satellite
View from above satellite

Ground track
Ground track

The orbit data is extracted from the following two-line orbital elements,

1 36122U 09072B   17351.05647236 -.00000042  00000-0  14215-5 0  9997
2 36122 100.0869   9.1386 0007636 168.4867 191.6423 13.16342644384688
Epoch (UTC): 17 December 2017 01:21:19
Eccentricity: 0.0007636
inclination: 100.0869°
perigee height: 1193 km
apogee height: 1204 km
right ascension of ascending node: 9.1386°
argument of perigee: 168.4867°
revolutions per day: 13.16342644
mean anomaly at epoch: 191.6423°
orbit number at epoch: 38468

The dashed part of the orbit path shows where the satellite is in the earth's shadow,  

DLR